Wind_Speed
13 14 15 13 11 10 6 3 2 4 7 10 11 13 14 14 13 13 14 14 14 14 14 13 12 11 10 8 8 7 8 10 10 14 18 14 13 14 13 15 14 14 15 14 11 9 7 5 4 3 5 6 7 5 4 3 4 3 3 2 3 2 2 4 4 3 3 4 5 9 16 13 9 14 11 9 9 16 15 5 6 7 5 9 16 26 30 27
12 13 15 14 11 9 6 4 1 3 6 9 11 12 13 13 13 13 13 14 14 14 14 13 12 11 9 8 8 7 8 9 13 17 13 8 12 18 17 16 17 16 15 14 11 8 7 6 5 4 5 6 6 2 3 2 4 3 2 1 3 4 3 3 4 5 4 5 9 10 15 17 15 18 15 8 9 14 8 4 6 7 9 13 22 30 29 29
12 12 14 14 11 9 7 4 2 3 6 8 10 12 13 13 13 13 13 13 14 13 13 13 12 11 9 9 8 7 7 10 15 13 6 9 15 20 20 18 18 17 15 14 12 10 9 7 5 4 5 5 3 0 2 1 3 3 1 2 5 4 5 9 9 5 9 7 13 11 12 13 15 20 15 9 9 8 6 7 8 11 15 19 27 31 29 31
11 11 13 14 11 8 7 6 4 3 5 7 9 11 12 13 13 13 13 13 13 13 13 13 12 11 9 9 7 6 7 9 10 4 3 8 12 16 20 20 18 18 16 15 13 11 9 7 5 4 4 3 2 1 0 1 1 2 2 4 6 3 5 13 19 16 11 10 18 15 11 9 14 17 13 13 9 3 9 17 19 20 24 27 31 31 31 32
10 10 12 13 11 8 7 7 5 3 4 6 8 10 11 12 13 13 13 13 13 13 13 13 11 10 9 8 6 6 4 4 2 2 2 3 6 12 18 19 19 18 17 15 13 11 9 6 4 2 2 2 3 3 1 1 4 2 4 9 8 4 4 12 21 19 8 10 17 15 12 13 16 12 15 19 9 7 16 23 24 27 29 30 33 32 33 32
10 10 10 13 12 8 6 7 6 4 4 5 6 9 11 12 12 12 13 13 13 13 13 12 11 10 8 7 6 5 4 1 2 2 2 2 2 9 14 17 18 17 17 15 13 11 8 5 4 2 0 1 2 1 3 6 4 3 5 8 8 4 4 10 19 18 5 13 16 15 16 17 14 7 18 23 14 14 20 23 24 27 28 29 32 33 33 33
9 9 9 12 12 8 6 6 6 5 4 4 6 8 10 11 12 12 12 12 13 13 12 12 10 9 8 7 6 5 8 5 2 3 3 2 1 4 10 13 15 16 16 15 14 11 8 6 5 2 2 2 1 1 5 9 5 2 3 7 11 11 9 12 16 19 7 17 19 18 17 17 13 8 15 22 22 15 14 21 24 27 29 29 31 32 32 32
9 9 8 10 12 8 5 5 5 5 5 4 6 7 9 10 11 11 11 12 12 12 12 11 10 9 7 7 6 5 9 5 2 2 2 1 1 1 5 9 13 15 14 15 14 11 8 6 5 2 1 1 0 3 6 9 4 3 2 9 15 19 20 18 16 15 8 16 17 17 15 17 16 10 12 22 26 14 11 19 23 26 30 30 31 31 31 31
8 8 8 9 11 9 5 4 5 5 5 5 6 7 8 9 10 10 10 11 12 11 11 10 9 9 7 7 5 4 6 3 1 3 3 2 2 1 3 5 9 12 13 14 12 12 10 5 4 3 1 1 0 4 5 6 3 2 4 10 13 20 24 19 13 7 9 16 16 14 8 11 11 5 9 25 25 13 11 17 22 26 30 32 32 31 31 31
8 8 7 8 10 9 5 4 5 5 5 5 5 6 7 8 9 9 9 9 10 10 10 9 9 8 8 7 5 2 3 4 1 3 3 3 3 4 5 5 6 9 11 13 12 12 10 4 2 1 1 1 1 5 3 1 4 8 12 12 11 17 20 12 6 4 14 16 18 14 5 6 8 4 8 23 22 13 13 18 21 26 29 32 32 31 31 29
8 7 7 7 9 9 5 4 5 5 5 5 5 5 6 6 7 8 8 8 9 9 8 8 7 8 8 7 8 4 2 4 3 3 3 3 4 5 5 5 6 7 8 9 10 12 10 6 4 2 2 2 5 9 5 3 8 14 14 13 11 12 12 6 3 9 13 10 14 11 4 3 3 2 9 20 20 16 17 20 22 26 29 31 31 31 31 30
8 7 6 7 9 9 5 3 4 6 6 5 5 5 5 5 6 6 6 6 7 7 7 7 7 7 7 8 12 8 2 4 5 5 5 3 4 5 5 5 5 6 6 6 7 10 11 9 5 2 3 3 7 6 6 11 14 12 8 7 10 10 8 3 3 11 10 5 12 9 5 2 5 9 12 13 17 17 18 21 23 27 28 30 31 31 31 29
8 7 6 6 8 9 5 3 4 6 6 6 6 6 5 5 5 5 5 5 5 5 5 5 6 6 6 9 10 8 6 7 7 7 7 5 5 6 6 7 6 5 4 3 4 5 7 8 8 6 6 5 5 4 8 13 11 8 3 2 5 9 5 3 2 9 7 5 16 13 2 6 9 16 14 7 14 19 18 22 24 27 28 29 30 31 31 30
8 8 6 5 7 8 6 4 5 5 6 7 6 6 5 5 5 5 5 5 4 4 4 5 6 6 7 8 5 6 10 9 8 8 7 5 5 6 6 8 8 6 5 4 4 4 5 5 6 7 8 8 7 7 9 8 5 4 3 2 3 4 3 7 1 7 5 7 21 14 3 8 9 18 19 10 14 21 21 23 25 27 29 29 30 31 31 31
9 8 6 5 6 7 6 5 5 5 5 6 6 6 5 5 5 5 5 5 5 5 5 5 5 5 7 8 5 6 10 10 9 7 6 6 4 5 5 6 7 7 7 7 6 5 5 4 4 4 7 8 5 4 5 5 4 3 1 3 3 1 4 9 2 7 4 6 16 12 3 8 7 14 21 15 15 22 22 23 26 28 29 30 31 32 32 31
9 8 6 5 5 7 6 6 5 5 5 4 5 5 5 5 4 4 4 5 5 5 5 4 5 4 5 6 5 6 7 9 8 6 7 6 3 3 3 7 7 8 8 7 6 4 4 3 3 4 4 4 0 4 4 5 4 3 1 2 3 2 4 7 5 1 2 4 6 6 3 4 4 7 13 17 20 22 21 22 26 27 29 30 31 32 33 32
11 9 6 4 4 5 6 6 5 4 4 4 4 4 4 4 3 4 4 5 5 5 5 5 4 5 6 5 3 3 3 5 6 7 7 7 5 3 6 8 7 7 5 4 3 3 3 2 2 3 1 1 2 4 4 4 4 4 3 1 3 2 3 5 6 6 5 6 4 6 5 6 6 5 5 17 22 22 21 23 26 28 29 30 31 32 32 33
13 9 6 4 3 4 6 6 6 4 4 5 5 4 4 3 3 3 4 5 5 4 4 6 5 2 6 7 4 1 4 6 4 6 6 8 9 6 6 5 3 4 3 2 2 3 3 2 2 0 2 4 3 5 2 3 1 2 3 2 4 3 3 5 5 5 5 1 5 5 6 11 12 6 6 16 21 23 24 24 25 26 28 29 30 31 32 33
13 10 6 3 1 3 4 5 5 5 6 8 7 6 5 3 2 2 4 6 7 4 2 6 8 2 2 7 5 2 6 7 1 6 8 9 10 9 8 4 1 2 2 2 1 3 4 1 2 1 2 1 2 5 6 8 5 3 1 2 3 4 6 7 5 5 4 3 1 6 8 11 13 10 7 13 18 20 20 19 20 22 25 27 29 31 32 34
14 11 7 2 0 1 3 5 5 5 6 7 7 6 5 4 1 1 3 8 10 9 8 8 10 9 6 4 4 4 6 5 1 5 8 11 11 10 9 5 2 1 1 3 2 1 3 2 2 5 6 6 7 7 7 5 3 2 2 2 4 4 7 8 6 5 2 1 5 5 7 11 12 8 4 11 14 13 14 16 18 21 24 28 30 32 33 35
15 12 7 2 1 1 3 5 6 6 6 7 6 5 5 6 3 3 6 10 12 12 15 15 14 17 16 11 10 9 8 4 3 5 7 11 12 9 7 5 2 1 2 2 3 1 3 2 6 7 8 8 7 7 5 4 3 4 2 3 5 4 7 9 7 7 0 2 5 3 3 11 11 6 3 10 11 12 18 18 19 23 26 28 30 32 34 34
16 12 8 3 2 2 2 3 5 6 6 7 8 6 6 7 5 6 6 8 12 11 11 14 17 20 19 16 15 13 9 5 4 7 8 12 13 9 6 5 4 2 1 2 3 3 3 4 10 8 6 5 5 6 6 5 5 4 2 0 4 3 4 8 7 6 1 3 3 1 2 9 10 7 5 9 11 14 20 22 21 23 24 28 31 32 32 32
16 12 8 4 1 2 2 1 2 3 4 6 6 6 4 4 5 6 6 6 10 12 9 11 16 19 19 16 15 13 9 6 5 8 11 13 14 10 7 5 4 3 1 3 5 2 0 6 8 5 6 5 3 4 5 4 4 3 4 2 5 3 0 4 5 5 3 1 2 2 2 6 6 5 4 8 11 12 16 21 22 22 26 31 32 30 29 30
15 12 8 4 1 2 1 1 0 4 4 3 3 3 2 4 5 7 7 5 6 7 7 8 11 16 17 13 10 10 10 9 7 8 13 16 14 9 7 6 4 2 3 5 8 5 6 8 4 2 4 6 4 2 5 3 4 3 6 5 6 6 5 7 5 6 4 2 1 3 4 6 5 5 6 4 5 9 13 16 20 25 30 31 28 27 28 28
14 11 9 5 2 2 1 2 1 4 4 1 1 3 5 7 7 7 5 2 3 5 3 4 7 12 13 8 7 8 6 9 11 10 13 18 17 8 4 6 5 3 5 6 6 4 8 9 5 3 2 5 5 4 5 6 3 3 5 11 11 9 8 6 4 5 5 3 3 5 4 5 6 6 6 5 5 6 6 8 17 23 24 24 27 29 29 29
12 10 9 6 2 1 1 0 2 3 3 4 5 7 9 9 7 5 1 4 3 4 1 3 4 6 8 7 9 8 1 6 13 14 15 17 19 12 3 3 3 3 5 6 3 3 5 5 3 5 4 4 2 4 5 7 4 3 5 11 11 7 4 4 2 1 1 3 4 4 3 4 6 6 6 6 7 8 4 5 14 19 19 21 26 29 28 29
10 9 8 7 4 0 2 2 2 4 5 6 8 9 11 9 5 3 1 5 2 2 1 3 3 3 6 6 10 10 1 4 7 12 20 18 18 16 6 2 2 2 4 5 0 2 3 1 2 3 3 3 1 4 5 8 7 3 5 7 9 7 5 5 4 3 3 2 4 5 4 2 4 5 6 6 7 9 8 6 10 15 19 21 25 28 28 28
8 7 7 6 5 3 1 2 3 4 4 5 7 8 8 5 2 2 3 4 2 1 1 3 3 2 2 3 13 13 1 0 2 5 18 20 17 14 7 6 5 3 3 5 2 5 2 3 1 2 2 1 5 4 6 9 4 6 5 6 7 6 5 4 5 3 1 2 3 7 3 2 4 6 5 6 5 8 10 10 9 13 17 19 23 28 28 28
8 6 6 6 6 4 2 2 3 3 3 5 6 6 4 2 2 3 5 1 2 1 1 1 2 2 1 2 12 14 4 2 3 1 10 17 19 11 4 7 7 4 2 3 4 6 1 2 3 4 3 3 7 5 8 10 4 4 4 6 5 5 4 3 5 4 3 4 2 6 3 3 3 6 6 6 6 7 9 9 9 16 23 23 22 24 26 27
8 5 4 5 5 4 3 2 3 5 5 5 5 4 2 4 3 5 2 2 1 1 1 0 1 2 3 3 4 7 4 1 3 3 6 9 16 11 1 3 4 5 1 3 2 6 5 4 2 2 4 6 6 4 5 8 5 3 6 5 5 6 5 3 2 4 5 3 5 7 2 4 0 5 4 3 4 6 8 9 10 17 27 30 28 26 24 24
9 6 5 4 4 5 5 4 5 8 8 5 3 2 5 3 3 5 2 3 1 2 3 2 2 4 3 2 1 3 1 1 4 4 4 2 4 3 3 1 2 4 3 5 3 6 7 2 2 3 3 2 2 1 1 1 1 4 4 4 1 4 4 4 4 4 4 2 6 6 2 4 2 2 4 5 6 6 5 7 10 15 23 30 31 27 23 21
10 7 6 6 6 7 8 8 9 10 8 5 2 5 6 2 1 2 3 2 1 2 2 1 3 3 2 2 2 3 2 1 4 4 3 2 4 3 3 2 2 3 3 2 2 6 5 0 2 4 2 4 4 2 3 6 5 4 4 5 2 3 4 2 4 2 2 3 4 4 2 2 1 3 3 6 8 8 6 6 8 11 19 28 31 27 25 22
11 8 7 8 9 9 9 11 12 11 9 3 4 6 5 3 2 4 2 2 1 2 1 1 3 3 2 4 4 4 3 1 2 4 2 3 5 3 3 2 3 2 1 3 0 4 4 4 7 5 2 5 5 4 1 3 3 3 4 4 3 1 3 2 3 2 3 3 3 4 2 1 2 2 2 5 7 6 6 8 11 15 20 27 30 28 25 23
11 9 8 8 10 11 11 12 13 12 9 2 6 5 4 2 4 3 2 2 2 1 2 1 3 5 5 3 2 3 3 2 2 4 3 4 4 1 3 6 4 3 3 1 1 1 1 4 5 3 3 5 3 3 3 3 2 0 4 5 3 4 3 3 3 3 3 2 3 4 1 2 2 2 3 7 7 4 10 18 23 28 30 31 32 30 26 22
12 10 8 7 11 12 12 13 15 14 8 3 5 5 3 4 3 2 3 3 1 1 2 3 3 5 5 3 3 2 3 1 3 5 5 4 3 1 2 4 5 3 4 2 2 1 1 4 5 4 4 4 4 3 1 4 2 2 2 4 1 3 4 1 2 4 3 0 2 2 2 3 3 2 4 5 5 10 19 25 29 31 33 34 33 32 29 24
12 10 7 7 12 12 12 14 16 15 7 5 5 2 4 4 2 3 3 1 1 1 1 3 4 5 3 4 4 4 3 2 3 4 4 3 3 2 2 2 4 3 3 4 2 1 2 2 5 6 5 5 5 3 3 4 1 1 3 2 2 3 6 4 1 0 4 2 2 1 2 3 2 2 6 7 8 13 17 20 22 25 29 31 29 28 27 25
12 10 7 6 11 11 12 14 16 12 6 7 5 3 5 2 3 4 1 1 1 3 4 1 1 2 1 2 3 5 4 3 3 3 3 2 2 3 3 2 2 3 1 2 2 2 3 2 6 4 2 4 7 4 3 5 3 3 2 2 3 2 4 4 1 3 4 1 3 2 0 3 1 2 6 10 12 12 11 11 15 21 25 26 25 24 22 21
14 12 9 7 9 10 11 13 13 7 7 5 2 4 3 1 2 2 2 1 1 3 6 3 1 1 2 1 2 5 3 2 2 3 3 2 2 2 3 2 2 6 7 2 2 1 3 0 6 3 2 6 9 6 3 8 7 4 2 2 2 2 0 1 2 1 1 1 3 4 2 3 3 2 4 8 9 10 10 10 11 15 19 22 24 25 23 22
16 12 7 5 6 9 11 11 7 5 6 3 2 3 1 1 1 3 4 1 2 4 3 3 1 2 2 3 1 3 2 2 1 2 2 2 1 2 3 1 2 8 11 6 3 0 2 2 4 5 3 4 6 6 2 6 7 4 3 3 2 3 3 0 1 2 2 2 2 3 3 2 4 4 3 2 6 7 8 9 8 11 18 22 25 28 28 27
15 9 4 5 6 8 9 6 3 3 3 3 4 3 1 1 2 6 6 1 2 3 2 4 2 3 2 1 1 1 2 2 3 3 2 2 2 1 3 3 2 6 8 7 5 1 2 2 2 6 4 3 3 2 1 2 3 3 4 4 3 2 1 1 1 1 3 3 2 1 2 4 5 3 6 5 5 6 7 8 8 14 23 27 28 30 31 31
12 5 4 8 7 7 6 1 1 2 3 2 2 1 1 1 2 6 10 6 2 3 3 5 4 3 3 2 0 1 2 3 3 3 2 2 2 1 3 6 4 4 4 6 5 3 2 1 1 3 5 3 1 3 1 2 4 3 2 2 1 1 2 2 1 2 1 3 4 3 3 6 5 2 6 4 2 5 8 9 10 17 24 28 30 30 31 32
8 3 6 11 9 6 3 1 1 2 3 2 0 1 2 2 1 5 9 8 5 4 4 4 3 3 3 2 1 1 2 3 3 3 3 2 2 2 5 9 6 2 3 3 2 2 1 3 3 1 2 3 6 5 2 1 2 5 3 1 2 2 4 4 2 3 1 1 1 2 1 6 4 3 5 2 2 5 12 14 14 19 24 27 30 29 29 30
9 7 9 11 10 6 1 2 3 3 1 1 1 1 1 2 2 3 6 6 5 4 4 2 1 2 2 2 1 2 3 2 2 3 3 2 2 3 8 9 4 3 4 2 2 3 2 3 3 2 4 4 5 5 4 4 5 6 3 2 3 2 2 4 4 2 1 2 0 1 2 6 5 2 5 5 2 3 13 19 18 21 26 29 30 28 27 27
12 10 7 10 10 5 2 2 1 0 2 3 3 3 2 2 3 4 3 3 3 2 2 2 1 1 1 2 3 2 2 2 2 2 3 2 1 5 11 11 6 4 4 1 1 2 2 1 3 3 4 5 6 6 5 5 4 2 2 2 3 3 4 2 1 2 1 3 4 3 5 5 4 1 8 12 9 9 19 26 23 21 26 30 30 28 27 26
11 7 5 10 10 2 4 3 3 3 0 2 3 3 2 2 3 4 2 3 4 2 2 1 0 1 1 2 4 3 3 3 2 1 2 2 1 4 10 13 10 6 5 4 1 1 2 1 3 4 2 2 1 2 3 3 2 1 1 3 3 3 3 2 1 2 1 3 3 4 5 4 5 5 10 13 12 13 19 26 26 23 25 28 28 28 27 27
6 2 4 8 10 10 9 5 3 3 2 3 3 2 2 1 2 4 3 3 5 4 4 2 1 2 4 3 3 4 5 4 3 2 3 2 1 1 5 9 11 8 7 10 8 3 4 2 2 6 6 6 6 6 5 1 2 3 5 6 3 1 2 3 3 2 4 3 3 5 4 5 8 6 8 9 8 8 11 17 22 24 25 25 25 25 26 27
2 1 2 4 6 8 8 7 6 3 2 3 2 0 1 1 2 3 3 3 4 5 5 4 4 3 2 2 4 2 3 4 4 3 2 2 1 1 2 5 9 9 8 10 9 4 4 2 0 4 5 6 6 6 3 2 2 5 6 7 5 3 3 4 4 5 5 2 6 4 5 3 7 1 4 6 5 6 9 13 18 19 21 22 23 25 27 28
2 1 0 1 2 1 3 5 6 5 3 2 1 0 1 2 1 1 1 2 4 5 3 3 6 4 1 3 4 2 1 3 3 1 2 1 0 2 3 3 6 7 7 7 6 5 5 1 2 4 3 6 5 5 4 3 4 6 7 8 7 5 6 7 8 6 7 5 9 3 4 5 6 1 1 4 3 5 7 9 10 12 15 18 22 25 28 29
1 1 1 1 2 2 1 2 3 4 3 2 2 1 2 2 1 1 1 3 4 5 4 3 2 5 2 2 4 4 3 3 1 2 2 2 1 1 2 1 2 4 5 4 4 4 4 1 3 4 3 6 7 7 7 5 5 5 6 9 8 8 10 9 7 5 7 7 11 7 6 8 5 2 2 3 4 3 4 5 8 11 15 18 21 24 26 27
2 2 2 2 1 1 1 1 1 2 1 1 2 1 2 4 1 1 1 3 1 3 4 5 3 1 2 3 6 4 4 6 5 3 5 4 1 1 2 2 2 3 5 3 2 3 3 0 2 2 1 6 6 4 3 4 5 5 6 7 7 8 8 7 6 4 4 7 9 7 8 7 4 3 5 6 6 6 7 7 9 11 14 17 21 23 24 25
4 3 2 2 1 0 1 0 2 3 0 1 2 2 2 3 3 2 2 3 3 1 1 5 6 2 4 5 7 4 4 7 6 5 7 6 2 3 2 3 4 1 4 1 1 2 2 0 1 3 1 6 4 3 3 1 2 4 7 9 11 9 6 5 5 5 5 5 4 4 4 4 4 5 6 4 3 3 4 4 5 8 10 13 17 19 21 22
4 4 3 3 1 1 1 1 3 3 2 2 2 2 2 2 2 2 3 2 4 6 3 5 7 4 4 5 6 2 1 2 3 5 7 5 3 4 3 3 5 3 2 2 1 1 3 3 1 2 1 6 4 4 4 5 4 5 7 8 10 7 5 3 4 5 5 5 3 3 4 5 4 3 4 2 0 1 1 1 3 6 8 11 14 16 19 20
Wind_Direction
4 7 5 1 357 354 354 344 264 216 202 196 195 193 193 192 189 186 186 188 193 197 198 202 205 210 213 219 229 238 251 259 261 262 254 230 210 215 210 209 214 217 223 225 225 226 236 259 278 301 316 319 314 309 332 291 212 182 138 38 303 271 255 199 204 197 181 207 199 183 164 142 148 169 168 161 155 149 162 208 193 201 202 166 157 157 160 157
6 9 9 6 3 6 12 18 57 185 185 185 186 188 189 188 186 183 184 188 194 197 199 202 205 209 214 220 228 242 259 268 273 268 250 204 204 211 206 207 212 216 223 227 227 229 236 251 255 286 313 311 307 300 348 297 188 174 125 357 263 229 252 255 230 209 252 224 178 186 170 157 163 166 163 155 150 152 169 218 174 178 165 156 159 161 163 161
8 11 12 11 8 15 24 38 78 151 171 177 181 184 186 185 184 181 182 188 193 197 200 202 205 209 214 220 231 245 262 279 280 273 228 193 205 204 203 206 210 214 220 225 226 230 238 251 267 304 316 310 306 260 353 32 186 222 91 300 248 234 286 315 322 288 279 227 161 172 177 170 165 161 167 161 156 165 190 194 166 166 164 159 164 167 167 166
9 13 16 15 12 19 32 45 73 132 164 176 180 182 184 185 182 180 182 188 193 198 201 203 205 207 213 221 232 245 268 292 280 259 175 207 211 207 206 204 208 213 217 223 227 229 236 253 275 307 312 304 316 329 302 87 302 252 148 229 249 316 321 327 334 334 309 210 165 160 165 173 166 164 174 151 140 230 230 202 178 170 170 166 169 172 172 172
10 14 19 18 16 21 36 48 64 108 157 176 181 183 183 183 181 179 182 187 193 198 201 204 205 207 214 219 231 246 276 322 249 147 114 201 207 208 208 206 207 209 216 222 226 232 239 250 265 286 301 310 354 10 217 340 338 271 228 244 260 320 320 324 331 338 328 189 162 153 161 173 166 168 180 161 157 217 208 200 185 175 172 170 173 174 175 177
10 14 20 21 21 22 37 53 61 81 135 165 178 182 180 182 179 178 183 188 194 197 201 203 204 209 212 219 233 239 233 151 123 125 112 110 203 200 201 208 208 208 215 220 227 234 237 239 241 225 183 10 358 350 283 316 329 275 275 267 285 306 278 318 324 328 316 167 162 170 174 165 156 182 188 180 195 201 192 193 185 180 177 174 175 175 178 180
10 13 19 23 23 25 40 57 67 74 98 145 169 177 177 177 175 177 183 189 195 198 201 202 204 209 211 222 229 234 242 240 105 121 140 95 72 182 193 205 209 212 215 220 228 231 230 227 223 190 69 30 335 283 310 325 316 213 264 289 319 319 296 314 319 317 279 178 176 175 165 158 164 187 186 196 212 206 198 196 187 183 180 178 178 179 181 181
9 13 18 22 24 27 42 61 77 83 90 125 152 166 171 171 172 176 183 190 197 199 202 201 204 209 209 220 224 243 252 248 100 147 167 121 89 146 198 204 211 218 219 225 230 232 235 228 219 201 61 62 337 307 331 343 338 157 231 303 320 316 313 327 328 312 254 193 180 166 163 172 180 176 179 205 213 217 221 202 190 186 182 182 185 185 185 186
9 12 17 21 23 27 42 66 83 99 102 121 141 155 162 166 169 174 184 192 197 200 202 203 206 208 209 216 222 255 249 224 133 208 204 233 256 260 240 224 219 222 224 229 231 230 228 229 230 214 231 222 359 313 355 16 328 235 299 307 309 307 316 333 334 305 199 188 173 164 174 176 174 160 198 211 212 225 227 200 192 188 186 187 190 191 190 191
8 10 16 18 21 27 42 77 88 103 113 122 135 147 155 165 170 172 185 195 200 201 201 205 208 208 213 215 206 224 225 198 185 205 205 246 268 273 264 261 243 230 229 231 231 226 220 212 204 172 276 299 352 310 337 92 281 304 308 300 289 300 313 326 322 181 162 172 172 168 179 177 169 139 219 218 215 226 212 195 195 192 191 192 194 197 196 195
7 10 15 16 18 23 42 89 92 99 112 118 127 142 151 161 167 170 181 193 200 199 199 206 211 214 219 221 212 198 183 190 190 190 200 233 269 282 274 269 259 245 238 235 232 226 213 182 147 65 333 322 329 315 315 318 317 317 314 309 298 310 320 310 246 176 151 162 184 168 132 176 183 199 231 219 214 223 206 194 197 196 196 197 198 200 201 201
6 9 14 17 14 18 40 97 102 100 106 112 120 132 143 154 160 165 172 185 194 194 198 205 214 223 229 239 231 218 206 211 206 204 204 215 257 270 258 252 256 258 260 250 237 227 214 198 189 291 316 329 325 323 327 328 327 315 319 320 306 341 353 304 192 174 161 169 182 145 83 249 239 225 228 218 211 214 202 196 198 198 200 200 202 204 205 206
5 6 12 18 13 14 34 98 113 103 104 108 115 124 134 142 148 155 159 167 181 186 195 206 219 231 242 250 240 227 236 231 216 213 208 216 254 269 252 233 228 234 242 229 217 216 214 216 225 263 292 309 306 308 315 320 325 311 328 4 309 353 356 281 96 163 178 184 172 150 132 242 241 230 226 222 208 201 194 197 199 200 202 202 205 208 210 210
5 5 8 17 18 18 34 96 114 106 105 107 110 117 125 132 139 146 152 157 165 178 190 202 219 235 242 247 241 229 236 235 226 220 214 224 252 278 259 227 214 197 175 160 165 180 186 207 229 256 279 281 280 299 318 329 347 325 333 38 7 12 283 283 335 158 174 191 177 165 226 240 241 236 229 228 210 199 192 197 200 202 203 206 209 212 215 215
6 4 5 12 20 25 45 94 108 101 104 107 109 113 116 124 135 142 154 163 164 175 186 200 216 236 257 258 245 232 235 237 239 230 222 228 256 292 265 207 186 158 145 146 152 166 166 176 219 248 276 284 291 322 340 348 1 2 350 318 345 57 279 302 302 167 170 193 182 170 244 255 255 243 231 225 210 200 195 199 202 204 205 208 212 216 219 219
3 4 3 4 23 37 56 88 97 94 98 103 109 111 115 122 133 146 161 169 169 181 188 203 218 230 269 273 248 240 249 251 247 234 221 216 240 296 174 159 152 144 144 144 146 159 165 175 243 259 279 288 32 65 25 355 341 357 56 258 301 347 316 323 335 286 126 132 192 202 249 266 283 271 232 211 203 198 197 202 205 207 209 210 214 218 221 221
357 2 3 359 23 46 62 81 87 93 98 103 110 109 114 125 138 150 167 174 176 186 193 200 215 249 258 256 257 259 297 295 259 235 219 202 209 187 149 150 146 152 156 151 171 183 181 190 214 244 297 47 93 78 36 343 322 332 20 49 282 298 309 311 319 335 55 105 202 238 263 255 263 305 208 198 198 194 198 207 209 209 212 214 217 220 222 223
352 354 1 358 14 54 69 73 74 89 99 101 105 106 107 113 137 161 188 190 179 177 218 214 197 283 255 225 236 291 351 337 273 229 214 194 202 193 168 160 145 174 179 144 187 178 182 196 121 183 4 38 59 81 99 244 214 40 27 1 309 290 263 263 270 307 357 49 185 199 254 261 265 277 201 199 199 197 204 210 211 212 215 217 220 222 224 225
350 348 355 357 357 64 76 64 66 90 102 99 93 93 88 74 115 180 199 195 186 172 235 212 189 205 215 189 209 268 340 342 271 207 203 190 199 202 189 184 188 193 150 115 150 154 158 137 58 354 314 43 166 145 179 210 179 146 186 221 278 290 273 260 253 265 296 325 220 184 223 250 259 260 217 200 203 208 217 218 217 218 219 221 224 225 226 227
351 346 348 351 253 83 75 64 67 93 111 103 83 79 65 39 87 189 234 231 235 241 260 247 224 243 249 207 220 277 329 341 190 199 196 189 196 202 198 203 207 113 124 148 178 145 136 164 243 228 222 209 206 200 208 215 186 222 264 268 259 262 280 282 272 255 201 334 289 229 224 248 255 263 218 193 203 218 227 228 228 223 222 225 226 228 228 228
355 348 342 337 206 180 88 75 72 88 108 103 78 70 48 28 21 316 291 272 274 266 258 257 253 256 256 251 256 279 307 312 217 199 197 197 194 193 201 197 123 66 269 160 144 59 90 196 237 222 214 213 207 201 218 237 224 239 247 311 297 248 265 282 277 275 173 139 279 301 261 260 259 268 203 182 193 214 217 220 228 227 228 229 229 231 231 231
359 352 343 333 194 176 118 87 83 91 97 97 83 69 52 30 358 324 313 291 293 287 261 251 250 252 252 250 256 270 284 283 232 206 202 200 196 196 190 163 126 177 253 92 98 24 32 261 249 227 198 191 194 186 196 224 232 235 178 47 297 258 269 288 290 303 24 140 262 301 224 256 262 269 235 196 203 218 216 219 228 231 234 236 235 235 235 234
1 359 351 341 165 169 147 93 128 136 106 97 82 64 41 3 332 327 322 289 291 292 268 243 240 247 250 250 255 255 243 237 235 215 206 199 200 203 184 152 141 165 127 124 148 115 265 254 246 210 172 166 214 198 174 223 255 223 168 162 264 260 325 282 294 333 16 62 257 185 212 276 292 309 277 226 225 231 223 226 234 238 240 241 240 240 240 238
5 7 2 359 72 150 141 31 155 176 161 119 83 59 354 310 299 318 315 286 290 295 272 243 236 244 248 250 252 239 224 227 232 211 205 200 192 194 198 173 132 167 210 172 161 171 235 247 221 142 158 169 224 230 159 196 267 234 196 193 236 251 223 219 262 333 357 358 356 75 17 319 332 343 308 279 258 245 230 228 236 239 242 246 248 248 247 244
10 15 14 19 65 130 101 21 118 164 182 190 328 320 318 303 288 302 318 334 302 290 278 230 230 238 237 233 226 219 215 229 232 215 203 203 194 179 198 183 153 213 211 159 147 191 255 257 216 210 232 173 198 229 181 181 231 294 228 205 216 234 238 245 299 1 24 351 323 40 33 298 318 328 294 322 333 277 246 235 242 245 246 249 252 251 250 249
12 20 24 25 37 151 176 202 155 187 236 267 288 299 307 305 296 287 323 43 330 277 269 184 206 217 211 207 200 190 184 255 240 224 211 211 203 187 164 174 181 227 180 147 146 197 256 265 169 175 201 165 185 254 216 166 136 312 244 204 207 211 225 275 294 91 64 289 311 43 108 255 316 319 292 320 323 302 298 255 256 259 258 254 254 256 254 252
7 21 27 24 20 309 254 272 262 272 276 277 285 289 295 301 295 258 20 37 337 273 121 171 170 170 197 212 187 164 111 267 232 218 212 210 201 190 194 222 198 230 164 123 119 231 215 253 80 126 144 145 238 275 224 152 124 250 238 170 173 176 187 217 183 169 220 246 341 15 104 146 307 285 294 328 328 320 320 298 277 269 263 258 259 262 260 258
356 15 26 28 26 12 306 321 320 307 298 296 299 292 293 298 242 190 92 59 281 279 83 190 190 170 194 218 194 185 198 299 128 217 213 205 195 185 200 221 185 195 172 121 205 257 166 129 175 172 107 163 228 228 177 152 151 246 220 134 147 157 169 176 137 139 335 49 331 325 43 96 282 278 313 350 359 337 321 314 306 297 291 279 270 269 267 264
344 352 18 30 26 18 21 9 345 336 314 317 325 304 285 172 153 90 88 98 277 355 33 205 180 209 266 143 199 213 266 9 51 214 200 194 196 188 200 220 177 155 192 125 208 257 279 192 209 157 144 226 236 228 166 167 212 233 144 98 77 67 78 102 112 123 45 42 270 292 360 92 275 296 335 5 12 341 318 315 309 314 320 316 304 294 285 277
342 330 345 14 22 20 25 5 324 319 303 310 327 300 188 151 110 67 88 241 281 305 332 10 194 305 337 95 196 241 258 310 37 114 155 176 196 197 159 204 150 130 237 7 244 263 307 279 243 153 197 225 232 242 173 183 202 138 113 81 41 24 36 44 52 97 68 7 256 266 292 102 358 297 324 350 334 320 315 319 321 324 330 333 332 326 312 298
341 323 295 321 357 359 6 5 340 330 314 305 312 212 161 139 72 89 185 249 301 311 359 12 320 354 15 129 118 328 299 296 19 95 150 118 177 207 30 43 57 58 6 351 311 304 339 328 224 243 251 269 236 192 59 360 44 101 102 80 50 318 5 23 350 45 90 261 256 256 260 91 90 291 325 326 316 324 317 307 317 325 331 338 345 346 339 321
332 320 282 272 288 317 339 343 339 338 327 308 243 173 151 82 24 160 232 300 327 289 4 344 310 6 27 60 35 336 344 320 7 57 147 98 74 42 31 157 176 34 346 298 307 332 339 257 303 296 289 27 49 99 9 360 29 89 104 84 111 302 4 352 312 347 187 229 239 242 256 82 152 216 281 313 321 332 331 322 326 331 337 348 357 360 356 346
324 319 294 259 259 283 306 319 326 335 333 301 181 153 105 79 221 218 255 333 243 257 18 318 334 21 57 50 18 321 1 31 342 24 71 92 89 85 35 76 137 107 251 225 294 355 329 312 346 349 331 15 65 105 9 330 23 91 135 122 154 135 60 274 275 293 255 259 251 248 256 278 265 230 240 280 289 297 334 9 16 13 7 6 8 7 3 357
319 318 302 252 241 262 280 299 314 328 328 252 160 120 84 137 224 227 248 264 255 320 19 4 340 14 40 56 342 324 49 40 355 37 36 45 71 73 8 12 28 85 111 142 157 66 313 299 336 2 319 341 36 116 152 156 72 34 165 137 137 147 145 233 234 205 238 279 284 273 262 167 177 187 227 254 270 323 20 24 26 24 19 16 15 13 7 358
321 320 305 247 231 254 276 288 305 321 311 207 127 86 133 205 238 212 225 252 290 336 346 13 49 40 15 345 320 355 81 34 16 50 39 44 80 59 6 350 351 55 117 154 226 147 123 258 271 288 300 351 14 336 59 98 74 288 137 91 65 170 148 159 191 177 175 331 311 285 242 197 168 218 267 272 315 17 23 21 24 21 15 16 17 14 8 358
320 320 308 235 225 249 275 283 299 312 283 169 96 81 195 210 218 178 202 241 115 124 342 349 47 65 351 322 335 345 16 34 38 54 36 49 83 35 12 314 330 11 120 150 198 196 104 246 286 327 348 32 35 349 26 68 196 276 55 79 232 169 123 116 183 32 73 94 285 282 238 300 347 281 309 350 14 16 16 16 19 17 13 13 14 13 9 1
316 318 311 251 237 257 275 284 301 298 235 147 109 214 212 204 194 189 234 288 180 98 96 94 360 77 334 323 334 319 345 31 34 58 56 41 38 4 345 309 335 359 342 143 165 184 132 231 300 350 11 343 0 3 14 39 77 92 77 204 211 95 90 105 118 3 38 114 278 320 227 301 305 235 321 6 18 7 4 7 9 10 10 8 6 8 10 4
319 319 311 271 258 278 290 300 304 266 190 128 114 225 211 158 202 217 304 303 177 80 87 122 200 129 169 152 310 304 339 25 7 53 79 58 28 16 1 313 338 3 351 32 136 121 98 224 294 312 253 304 351 27 1 354 26 81 148 197 125 102 43 23 97 123 22 205 284 318 310 260 204 201 341 10 10 352 351 360 4 2 0 359 358 1 4 2
323 319 304 263 268 299 308 309 292 205 161 119 171 217 212 203 271 352 348 303 137 87 91 165 159 87 132 148 208 289 2 62 71 77 87 84 64 25 23 325 302 351 0 37 112 229 66 108 273 284 268 305 3 42 28 328 346 23 34 8 33 126 154 81 103 153 173 187 245 310 331 265 219 194 149 56 358 346 350 356 356 349 350 355 355 357 1 4
325 323 283 265 288 312 314 298 237 165 128 155 188 208 271 225 295 359 14 16 153 85 117 188 144 95 134 164 198 291 29 79 110 95 70 75 82 10 9 16 313 322 354 40 77 69 44 83 258 286 314 27 31 38 129 244 297 356 29 18 353 360 78 118 44 90 132 153 180 222 297 264 246 201 143 105 1 338 349 353 348 348 352 356 359 360 2 6
332 332 282 291 308 320 315 258 147 76 100 142 177 207 334 360 300 347 15 43 92 72 112 155 139 131 147 119 139 240 29 49 70 77 66 52 90 110 1 1 335 296 348 35 42 32 41 84 187 317 354 30 251 253 208 210 216 166 100 62 12 354 72 110 312 324 82 130 160 167 258 262 248 160 126 109 350 336 8 11 353 351 354 357 2 4 3 4
346 331 300 311 317 314 311 115 42 35 116 126 91 255 317 2 352 344 8 31 51 47 67 111 117 123 140 126 130 151 95 54 32 66 95 73 106 155 325 340 338 336 64 64 336 326 98 97 80 357 311 262 259 278 342 333 134 111 85 67 111 73 74 116 194 268 334 355 145 122 267 267 257 119 99 53 342 16 27 22 2 353 356 358 2 4 1 360
342 320 314 326 324 317 15 70 357 2 45 289 311 290 331 30 40 359 5 22 29 28 35 55 86 87 140 161 119 121 116 77 45 95 124 110 72 355 346 3 18 24 54 82 315 350 62 78 59 331 302 310 307 326 9 20 58 70 21 24 86 57 65 135 176 183 230 265 164 100 265 268 271 90 66 14 338 41 22 17 8 356 355 359 2 4 2 358
333 317 325 353 338 300 171 135 166 278 312 330 20 23 18 66 51 22 11 17 23 56 63 39 36 74 122 118 96 120 137 92 79 98 115 135 105 13 22 45 72 58 47 104 243 6 26 60 78 53 348 343 345 348 350 353 27 58 323 6 51 55 62 74 105 75 301 234 168 177 238 250 251 57 41 17 7 8 0 1 4 358 354 357 0 4 6 3
337 315 323 6 7 49 127 128 147 147 133 30 48 22 9 48 45 38 54 47 35 82 118 36 332 105 71 69 73 52 43 79 112 74 61 93 123 20 33 49 67 73 59 55 69 122 102 113 112 106 134 224 247 272 266 290 344 357 303 338 2 31 37 2 38 82 263 244 173 188 233 271 288 341 28 22 9 357 347 349 354 358 358 359 3 6 7 9
354 328 315 2 31 66 79 75 92 113 125 100 79 40 43 35 358 26 73 65 22 36 77 34 355 72 47 52 79 33 9 36 74 85 88 113 215 343 28 45 55 63 58 48 45 81 96 63 117 137 161 189 195 218 228 159 13 314 302 308 315 53 71 75 105 177 206 214 244 227 222 280 291 327 13 14 4 343 330 341 348 354 1 5 10 12 12 14
354 316 299 354 21 48 57 46 43 59 133 125 109 101 68 353 305 5 59 64 30 47 66 31 23 68 80 97 109 70 359 17 41 74 113 173 229 326 8 39 43 46 57 48 38 73 90 25 323 145 183 209 194 206 212 120 188 243 263 277 271 216 155 141 184 214 174 180 272 230 143 242 267 333 10 344 347 328 323 339 345 354 7 13 17 18 18 19
309 260 224 14 315 350 52 19 18 42 67 89 92 82 74 43 354 27 23 9 32 48 61 31 19 23 197 166 130 128 79 36 25 49 140 160 279 16 25 25 27 40 62 51 36 82 109 156 199 155 222 236 212 223 229 199 219 226 226 244 253 232 211 212 226 209 158 197 259 231 135 253 268 98 321 294 316 310 314 335 347 5 19 23 24 24 22 21
268 223 191 180 246 208 154 312 348 48 51 59 66 55 119 114 73 227 316 7 10 11 45 110 352 344 337 147 126 133 160 149 147 250 198 134 95 94 85 58 347 33 63 64 39 73 103 190 204 177 234 248 239 246 245 233 242 249 239 236 230 221 223 230 241 212 178 226 262 272 277 275 262 218 263 318 358 352 354 12 21 27 26 26 27 26 23 21
231 205 194 165 195 176 148 291 32 85 10 15 86 66 134 133 147 253 24 58 75 331 30 114 167 329 42 97 106 120 190 175 156 191 180 134 83 180 153 195 229 5 31 65 48 44 71 246 216 160 271 268 259 268 265 226 211 231 261 255 230 225 231 238 245 220 204 250 268 279 290 285 262 271 316 353 22 38 47 43 36 32 29 27 24 21 18 16
237 218 197 155 157 166 143 16 90 123 295 353 138 165 138 157 195 178 56 52 108 124 82 147 157 101 38 67 91 111 192 170 139 155 163 143 138 176 153 173 179 43 17 89 101 45 85 293 346 69 344 276 288 8 360 354 186 233 262 255 235 225 217 222 231 210 189 209 248 301 299 264 256 301 325 347 39 49 33 25 27 30 30 26 21 15 11 7
240 227 201 152 171 274 168 116 70 120 202 220 161 158 142 186 224 142 103 45 67 75 80 159 150 101 61 92 100 81 246 160 113 121 138 124 107 130 129 162 166 145 115 143 100 64 132 137 131 104 230 274 302 23 42 33 3 290 253 233 220 202 185 214 239 221 193 176 196 256 245 220 231 287 319 332 287 219 269 343 5 6 12 12 7 3 359 355
Height
1483 1481 1480 1478 1477 1476 1474 1474 1474 1474 1474 1475 1476 1478 1479 1481 1482 1483 1485 1486 1487 1488 1490 1490 1491 1492 1493 1494 1494 1495 1495 1495 1494 1494 1492 1491 1493 1494 1495 1495 1496 1497 1498 1499 1500 1501 1501 1502 1502 1503 1503 1502 1502 1501 1502 1502 1502 1503 1506 1508 1506 1504 1503 1500 1499 1497 1495 1493 1493 1492 1492 1493 1496 1498 1498 1498 1499 1499 1500 1501 1500 1501 1501 1502 1503 1503 1504 1505
1482 1481 1480 1478 1477 1476 1475 1474 1474 1474 1474 1475 1476 1477 1479 1480 1482 1483 1484 1486 1487 1488 1489 1490 1491 1492 1492 1493 1494 1494 1494 1494 1493 1492 1490 1490 1491 1492 1493 1494 1495 1496 1497 1498 1499 1500 1500 1501 1502 1502 1502 1502 1501 1501 1501 1501 1501 1503 1505 1507 1504 1500 1496 1493 1494 1493 1491 1490 1490 1492 1492 1492 1493 1494 1496 1498 1499 1499 1500 1500 1500 1501 1501 1502 1504 1504 1505 1506
1482 1481 1480 1478 1477 1476 1475 1474 1474 1474 1475 1475 1476 1477 1479 1480 1482 1483 1484 1485 1487 1488 1489 1489 1490 1491 1492 1493 1494 1494 1494 1494 1492 1489 1489 1489 1489 1490 1492 1493 1494 1495 1496 1497 1498 1499 1499 1500 1501 1501 1501 1501 1501 1501 1501 1501 1501 1501 1503 1505 1501 1496 1492 1489 1490 1489 1488 1487 1487 1491 1493 1493 1493 1494 1495 1496 1498 1499 1498 1498 1498 1499 1499 1501 1503 1504 1505 1506
1482 1481 1480 1479 1477 1476 1475 1475 1474 1475 1475 1476 1477 1478 1479 1480 1481 1483 1484 1485 1486 1487 1488 1489 1490 1491 1492 1493 1494 1494 1494 1494 1490 1488 1488 1488 1489 1489 1491 1492 1493 1494 1495 1496 1497 1498 1499 1499 1500 1501 1500 1500 1500 1501 1501 1501 1501 1501 1502 1502 1497 1494 1493 1489 1487 1486 1485 1485 1486 1489 1492 1494 1493 1494 1495 1495 1500 1501 1497 1494 1493 1494 1496 1498 1500 1502 1504 1505
1482 1481 1480 1479 1478 1477 1476 1475 1475 1475 1476 1476 1477 1478 1479 1480 1481 1483 1484 1485 1486 1487 1488 1489 1490 1491 1492 1493 1493 1493 1495 1494 1489 1487 1488 1488 1488 1489 1490 1491 1492 1494 1494 1495 1496 1497 1498 1499 1500 1500 1500 1500 1500 1501 1501 1500 1501 1501 1499 1496 1493 1493 1494 1490 1487 1486 1485 1485 1487 1489 1490 1491 1491 1493 1494 1494 1497 1495 1491 1490 1491 1491 1493 1495 1497 1499 1502 1503
1482 1481 1480 1479 1478 1477 1477 1476 1476 1476 1476 1477 1477 1478 1479 1480 1482 1483 1484 1485 1486 1487 1488 1489 1490 1491 1492 1493 1493 1493 1494 1493 1488 1488 1488 1488 1488 1488 1489 1491 1492 1493 1494 1495 1495 1497 1498 1499 1499 1499 1500 1500 1501 1501 1501 1500 1500 1501 1497 1493 1492 1493 1492 1491 1488 1486 1486 1487 1487 1488 1487 1488 1491 1492 1493 1492 1491 1488 1487 1489 1491 1492 1492 1493 1495 1497 1499 1500
1482 1481 1480 1480 1479 1478 1477 1477 1477 1477 1477 1477 1478 1479 1480 1481 1482 1483 1484 1485 1486 1487 1488 1489 1490 1491 1492 1492 1493 1493 1493 1490 1487 1488 1489 1488 1489 1489 1489 1490 1491 1492 1493 1494 1495 1496 1497 1498 1499 1499 1499 1501 1501 1501 1500 1499 1498 1500 1499 1493 1490 1490 1490 1491 1488 1486 1487 1487 1485 1487 1487 1488 1490 1491 1492 1491 1487 1487 1488 1489 1491 1493 1494 1495 1496 1496 1497 1498
1482 1481 1481 1480 1479 1478 1478 1477 1477 1477 1477 1478 1479 1479 1480 1481 1482 1483 1484 1485 1486 1487 1488 1489 1490 1491 1492 1492 1492 1493 1492 1489 1488 1489 1489 1489 1489 1489 1490 1490 1491 1492 1493 1494 1494 1496 1497 1497 1498 1498 1500 1501 1501 1500 1499 1498 1497 1498 1498 1494 1490 1488 1487 1488 1487 1484 1485 1487 1487 1488 1488 1488 1489 1490 1491 1488 1486 1488 1488 1489 1491 1493 1495 1496 1496 1496 1498 1499
1483 1482 1481 1480 1479 1479 1478 1478 1478 1478 1478 1479 1479 1480 1481 1481 1482 1483 1484 1485 1486 1487 1488 1489 1490 1491 1491 1492 1492 1492 1490 1488 1488 1488 1489 1489 1489 1490 1490 1490 1491 1492 1492 1493 1494 1495 1496 1497 1497 1498 1499 1500 1500 1500 1499 1500 1499 1497 1496 1494 1491 1488 1486 1487 1486 1483 1484 1487 1488 1489 1489 1489 1490 1492 1491 1486 1487 1489 1488 1489 1491 1492 1494 1495 1496 1497 1497 1499
1483 1482 1481 1481 1480 1479 1479 1479 1478 1478 1479 1479 1480 1480 1481 1482 1482 1483 1484 1485 1486 1487 1488 1489 1490 1490 1491 1491 1492 1492 1488 1487 1488 1488 1489 1489 1489 1490 1490 1490 1491 1491 1492 1493 1494 1495 1496 1496 1497 1497 1498 1498 1499 1499 1498 1500 1499 1495 1494 1493 1491 1489 1487 1486 1486 1485 1485 1487 1488 1489 1491 1491 1491 1494 1492 1487 1487 1489 1488 1489 1490 1491 1493 1494 1495 1496 1497 1498
1483 1482 1482 1481 1480 1480 1479 1479 1479 1479 1479 1479 1480 1480 1481 1482 1483 1484 1484 1486 1487 1487 1488 1489 1489 1490 1491 1491 1491 1490 1487 1487 1488 1488 1489 1489 1489 1489 1489 1490 1490 1491 1492 1493 1494 1494 1495 1496 1497 1497 1498 1498 1498 1497 1496 1497 1496 1494 1493 1491 1490 1489 1487 1485 1486 1487 1486 1488 1489 1489 1491 1492 1493 1493 1489 1486 1488 1488 1488 1489 1490 1491 1492 1493 1495 1496 1497 1498
1483 1483 1482 1481 1481 1480 1479 1479 1479 1479 1480 1480 1480 1481 1481 1482 1483 1484 1485 1486 1487 1487 1488 1489 1489 1490 1490 1490 1489 1487 1486 1487 1487 1488 1488 1489 1489 1489 1489 1489 1490 1491 1492 1493 1493 1494 1495 1496 1496 1497 1498 1498 1498 1497 1496 1495 1494 1493 1493 1493 1490 1488 1488 1485 1486 1487 1486 1488 1488 1490 1497 1497 1493 1489 1485 1486 1488 1488 1489 1489 1489 1491 1492 1493 1494 1496 1497 1498
1484 1483 1483 1482 1481 1480 1480 1480 1480 1480 1480 1480 1481 1481 1482 1482 1483 1484 1485 1486 1486 1487 1488 1489 1489 1489 1490 1489 1486 1485 1486 1486 1487 1487 1488 1488 1489 1488 1488 1489 1489 1490 1491 1492 1493 1494 1495 1496 1497 1497 1498 1498 1498 1498 1496 1494 1494 1494 1494 1496 1495 1493 1492 1487 1486 1488 1487 1488 1487 1491 1503 1502 1491 1484 1484 1487 1487 1487 1488 1488 1489 1490 1491 1493 1494 1495 1496 1497
1484 1484 1483 1482 1482 1481 1480 1480 1480 1481 1481 1481 1481 1482 1482 1483 1484 1484 1485 1486 1486 1487 1488 1489 1489 1489 1489 1487 1484 1485 1485 1485 1486 1487 1487 1488 1488 1488 1488 1488 1488 1489 1490 1491 1492 1493 1494 1495 1497 1497 1498 1498 1497 1497 1496 1496 1495 1496 1496 1498 1501 1501 1496 1488 1487 1488 1488 1489 1486 1490 1502 1498 1487 1484 1483 1485 1485 1486 1487 1487 1489 1489 1490 1492 1492 1494 1494 1495
1485 1484 1484 1483 1482 1482 1481 1481 1481 1481 1481 1481 1482 1482 1483 1483 1484 1484 1485 1486 1486 1487 1488 1489 1489 1489 1488 1485 1484 1484 1484 1485 1485 1486 1487 1487 1487 1488 1487 1488 1489 1489 1490 1491 1492 1493 1494 1495 1496 1497 1497 1496 1497 1498 1499 1499 1498 1499 1500 1501 1504 1504 1498 1489 1486 1488 1488 1489 1486 1492 1500 1493 1485 1483 1482 1484 1485 1485 1486 1486 1487 1488 1489 1490 1491 1492 1492 1494
1485 1485 1484 1484 1483 1482 1482 1482 1482 1482 1482 1482 1482 1483 1483 1484 1484 1484 1485 1485 1486 1487 1488 1488 1488 1489 1488 1484 1483 1484 1484 1484 1484 1485 1486 1487 1487 1488 1487 1488 1489 1489 1490 1491 1492 1493 1494 1495 1496 1496 1496 1496 1498 1500 1502 1504 1503 1503 1503 1503 1504 1503 1501 1494 1486 1485 1486 1488 1489 1492 1495 1489 1484 1483 1481 1482 1483 1484 1485 1485 1486 1487 1487 1488 1489 1490 1491 1493
1486 1485 1485 1484 1484 1483 1483 1482 1482 1482 1482 1483 1483 1483 1483 1484 1484 1485 1485 1486 1486 1486 1487 1487 1488 1488 1486 1483 1482 1483 1483 1483 1483 1484 1485 1486 1487 1487 1488 1488 1489 1489 1490 1491 1492 1493 1494 1495 1495 1496 1497 1498 1499 1500 1507 1512 1508 1506 1505 1505 1505 1504 1504 1500 1492 1486 1485 1488 1492 1492 1492 1488 1483 1481 1482 1482 1482 1483 1484 1483 1484 1485 1486 1487 1488 1489 1490 1491
1486 1485 1485 1485 1484 1484 1483 1483 1483 1483 1483 1483 1483 1483 1484 1484 1485 1485 1485 1485 1486 1487 1487 1487 1487 1488 1484 1481 1482 1482 1482 1482 1482 1483 1484 1485 1486 1487 1488 1488 1489 1489 1490 1491 1492 1492 1493 1494 1495 1497 1498 1500 1500 1503 1511 1514 1509 1508 1507 1507 1508 1506 1504 1503 1497 1490 1487 1489 1491 1493 1494 1488 1482 1480 1481 1482 1483 1482 1480 1481 1483 1484 1485 1486 1487 1487 1488 1489
1486 1486 1485 1485 1485 1484 1484 1484 1484 1483 1483 1484 1484 1484 1484 1484 1485 1485 1485 1485 1485 1485 1485 1484 1484 1485 1483 1480 1481 1481 1481 1481 1481 1482 1483 1484 1486 1487 1487 1488 1489 1489 1489 1491 1492 1492 1493 1494 1496 1499 1500 1501 1501 1502 1505 1506 1505 1506 1507 1509 1510 1509 1503 1498 1496 1490 1487 1489 1489 1491 1492 1487 1481 1479 1480 1481 1483 1483 1481 1482 1483 1483 1484 1485 1486 1486 1486 1487
1487 1486 1485 1485 1485 1485 1485 1485 1484 1484 1484 1484 1484 1484 1484 1485 1485 1485 1485 1484 1483 1481 1481 1481 1480 1480 1480 1479 1480 1481 1481 1481 1481 1482 1483 1484 1485 1486 1487 1488 1488 1489 1490 1491 1493 1492 1493 1497 1499 1499 1499 1499 1499 1499 1499 1500 1503 1504 1505 1507 1508 1510 1503 1493 1492 1488 1485 1490 1488 1487 1489 1486 1481 1479 1480 1481 1482 1483 1483 1483 1482 1482 1483 1483 1483 1484 1484 1485
1487 1486 1485 1485 1485 1485 1486 1485 1485 1485 1485 1485 1485 1485 1485 1485 1486 1486 1484 1481 1479 1479 1478 1478 1479 1478 1477 1479 1479 1480 1481 1480 1480 1481 1483 1484 1485 1486 1487 1488 1489 1491 1491 1491 1492 1492 1493 1498 1497 1495 1496 1496 1497 1498 1498 1499 1501 1502 1504 1506 1506 1508 1502 1491 1489 1486 1485 1491 1489 1486 1490 1487 1481 1480 1480 1480 1480 1480 1479 1480 1480 1480 1481 1481 1481 1481 1482 1484
1488 1486 1485 1485 1485 1486 1486 1486 1486 1486 1486 1485 1485 1486 1486 1486 1486 1485 1484 1480 1477 1476 1476 1476 1477 1476 1475 1477 1478 1479 1481 1480 1480 1480 1481 1483 1484 1485 1486 1487 1489 1491 1492 1492 1494 1495 1498 1497 1492 1491 1493 1494 1496 1497 1498 1499 1500 1501 1504 1507 1506 1503 1499 1492 1488 1486 1486 1489 1489 1488 1491 1486 1481 1480 1480 1478 1477 1476 1477 1478 1479 1479 1480 1480 1479 1479 1481 1483
1489 1486 1486 1485 1485 1486 1486 1486 1486 1486 1486 1486 1486 1486 1486 1486 1485 1485 1484 1482 1477 1474 1474 1474 1475 1474 1473 1475 1477 1478 1479 1479 1479 1479 1480 1481 1482 1484 1485 1486 1489 1491 1492 1493 1495 1499 1500 1494 1487 1488 1491 1493 1495 1496 1497 1499 1500 1501 1503 1506 1504 1499 1500 1498 1489 1487 1487 1488 1489 1490 1489 1483 1480 1481 1479 1478 1477 1476 1478 1478 1478 1479 1478 1477 1477 1479 1480 1481
1489 1487 1486 1485 1486 1486 1486 1487 1486 1486 1486 1486 1486 1486 1486 1486 1485 1485 1484 1483 1479 1473 1471 1472 1472 1472 1472 1474 1475 1476 1477 1477 1477 1477 1478 1479 1481 1483 1484 1484 1488 1490 1491 1491 1493 1497 1495 1488 1485 1488 1490 1492 1495 1495 1498 1500 1500 1501 1501 1502 1499 1494 1497 1497 1491 1489 1489 1490 1490 1488 1489 1484 1481 1482 1479 1478 1480 1477 1477 1478 1477 1476 1475 1475 1477 1479 1480 1481
1489 1488 1487 1486 1486 1486 1486 1487 1486 1487 1487 1486 1486 1486 1486 1485 1485 1485 1484 1485 1482 1474 1471 1471 1471 1470 1471 1473 1474 1474 1475 1475 1474 1475 1476 1477 1479 1481 1482 1483 1486 1488 1490 1491 1493 1495 1491 1485 1485 1488 1489 1491 1493 1494 1495 1497 1499 1500 1495 1493 1492 1489 1492 1493 1493 1495 1494 1494 1491 1489 1499 1496 1484 1482 1480 1480 1481 1478 1479 1479 1476 1474 1475 1476 1477 1476 1478 1479
1490 1489 1487 1487 1486 1486 1487 1486 1486 1487 1486 1486 1486 1485 1486 1485 1484 1485 1485 1490 1486 1474 1470 1472 1471 1470 1469 1472 1472 1473 1478 1474 1470 1473 1474 1475 1477 1479 1482 1483 1484 1485 1487 1489 1492 1492 1488 1483 1483 1486 1487 1489 1490 1492 1491 1493 1499 1499 1489 1484 1486 1489 1491 1492 1493 1496 1497 1497 1493 1491 1502 1503 1490 1482 1482 1484 1482 1478 1478 1479 1476 1475 1477 1476 1475 1475 1476 1477
1490 1489 1488 1487 1486 1486 1487 1486 1487 1487 1486 1487 1485 1485 1485 1483 1484 1483 1486 1497 1491 1473 1471 1472 1471 1470 1469 1470 1470 1474 1480 1474 1468 1471 1471 1473 1476 1477 1482 1484 1483 1484 1483 1487 1492 1488 1483 1483 1484 1485 1486 1488 1489 1488 1488 1489 1496 1494 1483 1481 1485 1487 1488 1490 1491 1494 1495 1495 1495 1493 1496 1502 1498 1487 1487 1488 1482 1477 1476 1476 1475 1474 1475 1475 1474 1474 1474 1474
1490 1490 1488 1488 1487 1486 1486 1486 1486 1486 1486 1486 1484 1485 1484 1482 1485 1482 1490 1504 1491 1470 1470 1470 1468 1469 1468 1470 1470 1470 1473 1470 1470 1472 1469 1473 1476 1476 1480 1481 1481 1483 1480 1486 1492 1485 1480 1483 1484 1484 1487 1489 1486 1484 1484 1487 1489 1485 1480 1481 1484 1484 1486 1489 1491 1493 1495 1495 1498 1499 1495 1503 1505 1490 1487 1489 1483 1482 1480 1476 1475 1473 1472 1474 1473 1472 1472 1472
1490 1489 1489 1488 1487 1486 1486 1486 1485 1485 1485 1484 1483 1484 1482 1483 1484 1483 1495 1503 1483 1468 1470 1469 1468 1470 1468 1469 1470 1469 1469 1469 1471 1472 1469 1472 1474 1474 1478 1478 1479 1482 1481 1484 1487 1482 1480 1481 1481 1482 1486 1486 1482 1479 1481 1483 1483 1480 1480 1482 1484 1487 1490 1493 1492 1490 1494 1499 1502 1502 1498 1504 1508 1494 1489 1492 1489 1490 1487 1480 1478 1475 1473 1473 1472 1472 1471 1471
1490 1489 1489 1488 1487 1487 1486 1485 1485 1484 1484 1483 1483 1482 1482 1483 1484 1492 1505 1497 1477 1470 1470 1467 1469 1470 1469 1470 1471 1470 1469 1470 1470 1470 1471 1472 1473 1474 1476 1476 1477 1481 1483 1484 1484 1482 1480 1479 1479 1481 1482 1480 1478 1478 1479 1479 1479 1478 1480 1482 1485 1490 1492 1494 1496 1492 1498 1507 1505 1504 1502 1503 1508 1502 1497 1500 1499 1498 1493 1486 1482 1477 1475 1474 1472 1472 1471 1471
1489 1489 1488 1487 1487 1486 1485 1485 1484 1483 1483 1482 1482 1481 1482 1484 1488 1502 1505 1487 1476 1474 1469 1469 1471 1469 1470 1472 1473 1471 1470 1470 1469 1470 1473 1473 1475 1476 1477 1479 1480 1483 1487 1487 1484 1483 1481 1479 1479 1478 1477 1477 1476 1477 1479 1478 1479 1479 1481 1484 1489 1494 1494 1495 1497 1495 1504 1513 1507 1506 1506 1503 1508 1511 1506 1503 1500 1498 1496 1492 1487 1482 1478 1475 1472 1471 1470 1471
1488 1488 1487 1486 1486 1485 1484 1484 1482 1482 1482 1481 1481 1480 1483 1490 1496 1500 1492 1479 1479 1478 1471 1473 1473 1471 1472 1472 1474 1474 1472 1472 1471 1471 1474 1475 1480 1483 1483 1485 1486 1489 1494 1494 1490 1485 1481 1480 1480 1478 1476 1476 1477 1479 1481 1479 1480 1482 1483 1488 1497 1504 1506 1505 1507 1509 1512 1511 1506 1506 1506 1503 1509 1512 1507 1503 1499 1496 1495 1493 1490 1486 1481 1477 1474 1471 1470 1471
1487 1486 1485 1485 1485 1484 1483 1482 1482 1482 1480 1480 1481 1480 1485 1496 1498 1492 1485 1480 1480 1476 1473 1474 1473 1473 1474 1473 1476 1476 1473 1475 1473 1473 1475 1476 1482 1486 1486 1486 1486 1488 1493 1497 1496 1490 1486 1483 1481 1480 1478 1476 1478 1482 1484 1483 1482 1483 1484 1489 1497 1508 1517 1518 1521 1524 1518 1508 1506 1508 1506 1504 1509 1509 1504 1503 1500 1497 1495 1492 1489 1487 1483 1480 1477 1475 1473 1473
1486 1485 1484 1483 1483 1483 1482 1481 1481 1480 1480 1480 1480 1482 1491 1498 1494 1487 1484 1481 1478 1475 1474 1475 1474 1474 1474 1476 1478 1476 1475 1477 1475 1474 1477 1477 1483 1488 1487 1487 1486 1486 1489 1495 1497 1495 1497 1494 1486 1484 1482 1479 1479 1481 1483 1483 1482 1485 1485 1485 1490 1500 1510 1514 1515 1515 1512 1508 1507 1507 1504 1502 1505 1505 1502 1500 1499 1496 1493 1490 1487 1484 1483 1482 1479 1477 1476 1475
1484 1483 1482 1482 1482 1481 1480 1480 1479 1478 1479 1479 1480 1487 1494 1495 1490 1487 1483 1478 1476 1476 1475 1476 1475 1476 1479 1479 1478 1476 1476 1478 1476 1477 1481 1483 1488 1491 1491 1490 1488 1487 1488 1493 1497 1498 1502 1499 1488 1485 1484 1481 1481 1481 1480 1481 1484 1488 1487 1485 1489 1494 1499 1510 1516 1514 1512 1512 1509 1507 1503 1500 1500 1499 1498 1497 1494 1491 1489 1486 1485 1484 1484 1483 1481 1479 1478 1478
1483 1482 1481 1480 1480 1480 1479 1478 1477 1477 1477 1477 1483 1490 1490 1485 1484 1483 1479 1475 1476 1476 1476 1478 1477 1479 1483 1481 1479 1477 1476 1477 1478 1481 1486 1490 1491 1493 1493 1492 1490 1489 1488 1492 1497 1498 1501 1498 1488 1485 1484 1482 1482 1482 1481 1483 1485 1487 1487 1488 1492 1492 1492 1504 1519 1521 1519 1517 1515 1514 1505 1498 1501 1500 1495 1494 1491 1488 1488 1487 1487 1487 1486 1485 1484 1484 1482 1481
1481 1480 1479 1479 1479 1478 1477 1476 1475 1475 1475 1476 1483 1487 1483 1479 1479 1478 1476 1475 1475 1475 1477 1481 1482 1483 1486 1485 1483 1480 1477 1478 1479 1482 1489 1493 1493 1494 1495 1492 1490 1490 1488 1490 1494 1496 1498 1497 1490 1487 1486 1483 1482 1482 1481 1482 1483 1486 1489 1490 1491 1492 1493 1498 1508 1517 1522 1521 1517 1516 1509 1503 1505 1503 1496 1494 1493 1492 1492 1490 1489 1489 1487 1487 1487 1486 1485 1484
1479 1478 1478 1477 1477 1476 1475 1474 1473 1473 1473 1476 1481 1483 1480 1478 1477 1476 1475 1474 1474 1475 1477 1482 1484 1485 1488 1488 1486 1483 1480 1481 1482 1485 1490 1494 1496 1495 1495 1493 1490 1489 1488 1487 1490 1494 1497 1497 1494 1490 1488 1485 1481 1482 1485 1484 1483 1485 1488 1489 1491 1495 1497 1499 1506 1513 1521 1526 1521 1518 1519 1514 1508 1505 1501 1499 1499 1497 1495 1492 1491 1490 1488 1488 1488 1487 1486 1485
1478 1477 1476 1475 1475 1475 1473 1472 1472 1471 1472 1476 1481 1481 1478 1477 1476 1475 1475 1474 1474 1475 1478 1482 1483 1484 1487 1487 1485 1484 1483 1483 1485 1488 1492 1496 1498 1496 1495 1495 1491 1489 1488 1487 1489 1494 1496 1498 1497 1491 1489 1488 1485 1489 1497 1496 1489 1486 1487 1489 1490 1495 1499 1502 1507 1509 1514 1525 1527 1522 1520 1512 1504 1503 1502 1502 1502 1500 1496 1494 1493 1491 1490 1489 1488 1486 1485 1484
1477 1476 1474 1474 1474 1473 1472 1471 1471 1471 1472 1476 1480 1479 1477 1476 1475 1475 1474 1473 1473 1474 1477 1481 1481 1483 1486 1486 1486 1485 1485 1485 1487 1490 1493 1497 1498 1496 1494 1495 1493 1491 1489 1488 1490 1494 1496 1499 1499 1492 1489 1492 1495 1499 1504 1504 1500 1495 1494 1496 1496 1499 1502 1504 1508 1512 1511 1518 1526 1526 1521 1510 1500 1499 1500 1501 1503 1500 1497 1496 1494 1493 1490 1488 1487 1485 1484 1483
1477 1475 1473 1472 1472 1472 1471 1470 1472 1473 1474 1477 1479 1477 1476 1476 1475 1475 1473 1472 1473 1473 1475 1478 1479 1482 1484 1485 1486 1485 1484 1486 1488 1491 1495 1498 1499 1499 1496 1494 1494 1493 1490 1490 1493 1495 1497 1500 1501 1499 1496 1498 1502 1502 1501 1502 1503 1500 1500 1504 1504 1503 1504 1507 1513 1516 1513 1514 1520 1525 1522 1508 1497 1497 1499 1501 1501 1499 1498 1498 1496 1495 1492 1489 1487 1485 1484 1483
1477 1476 1473 1471 1471 1470 1469 1471 1475 1476 1476 1476 1477 1476 1476 1476 1475 1475 1474 1472 1473 1473 1474 1476 1479 1481 1483 1483 1485 1485 1485 1487 1490 1494 1497 1499 1500 1499 1497 1494 1493 1493 1492 1494 1497 1496 1497 1501 1503 1504 1503 1502 1502 1501 1501 1502 1501 1500 1503 1506 1508 1508 1507 1511 1516 1515 1515 1517 1519 1524 1522 1507 1497 1498 1500 1500 1500 1498 1499 1498 1497 1495 1493 1491 1489 1487 1486 1485
1476 1475 1472 1470 1470 1469 1469 1472 1476 1477 1476 1475 1476 1476 1476 1476 1476 1476 1475 1474 1475 1475 1476 1477 1479 1481 1482 1483 1484 1485 1486 1489 1493 1495 1497 1499 1500 1498 1497 1494 1493 1493 1493 1497 1499 1497 1499 1504 1507 1509 1507 1502 1500 1501 1502 1502 1501 1503 1507 1508 1509 1510 1510 1513 1516 1515 1516 1517 1517 1522 1521 1506 1498 1500 1501 1500 1499 1497 1497 1496 1496 1495 1492 1491 1490 1488 1487 1486
1476 1474 1472 1470 1469 1467 1469 1472 1474 1476 1477 1476 1476 1476 1476 1476 1477 1477 1477 1477 1477 1477 1478 1479 1480 1480 1481 1483 1483 1485 1487 1490 1494 1497 1497 1498 1499 1498 1497 1495 1494 1495 1495 1497 1499 1497 1501 1508 1511 1514 1516 1512 1508 1507 1506 1504 1505 1509 1512 1512 1510 1511 1512 1514 1516 1518 1518 1516 1514 1517 1514 1503 1497 1499 1499 1497 1495 1493 1493 1494 1495 1496 1494 1492 1490 1489 1488 1486
1476 1474 1472 1471 1469 1467 1469 1473 1474 1475 1477 1477 1477 1478 1478 1477 1477 1478 1478 1478 1478 1479 1479 1480 1480 1480 1482 1483 1484 1486 1488 1489 1492 1496 1497 1499 1499 1499 1498 1496 1495 1496 1496 1498 1497 1496 1502 1509 1510 1514 1522 1524 1519 1516 1513 1510 1512 1514 1514 1513 1513 1513 1513 1513 1516 1520 1520 1519 1516 1511 1506 1501 1496 1495 1499 1501 1500 1499 1499 1497 1497 1497 1496 1493 1491 1489 1488 1486
1478 1475 1473 1472 1470 1469 1471 1474 1474 1475 1477 1477 1478 1480 1480 1479 1478 1478 1478 1478 1479 1479 1479 1481 1480 1480 1483 1484 1485 1488 1491 1490 1491 1494 1497 1499 1499 1500 1499 1498 1497 1497 1497 1497 1496 1497 1504 1510 1509 1510 1514 1517 1515 1514 1515 1515 1515 1515 1513 1513 1514 1516 1515 1514 1518 1520 1517 1517 1514 1505 1502 1502 1498 1498 1504 1508 1508 1507 1505 1502 1500 1498 1496 1495 1493 1492 1490 1488
1480 1479 1477 1476 1474 1473 1474 1475 1475 1476 1477 1477 1478 1480 1481 1480 1479 1478 1478 1479 1480 1479 1480 1483 1482 1482 1484 1486 1487 1490 1493 1493 1492 1494 1498 1500 1500 1501 1500 1499 1499 1498 1498 1497 1496 1500 1506 1510 1512 1511 1510 1511 1513 1513 1515 1517 1517 1516 1515 1513 1513 1516 1517 1516 1517 1515 1512 1515 1512 1503 1501 1503 1500 1503 1509 1511 1510 1509 1506 1504 1503 1500 1498 1497 1495 1494 1492 1490
1480 1479 1480 1479 1478 1477 1476 1476 1477 1478 1478 1478 1479 1481 1482 1481 1480 1479 1479 1479 1479 1480 1481 1484 1486 1486 1487 1487 1487 1490 1494 1495 1495 1497 1500 1500 1500 1501 1500 1501 1500 1499 1499 1499 1498 1501 1506 1510 1514 1514 1512 1512 1514 1513 1514 1516 1516 1516 1515 1514 1513 1514 1515 1513 1511 1510 1511 1511 1506 1502 1505 1505 1502 1506 1511 1511 1511 1509 1507 1505 1504 1502 1500 1498 1496 1494 1492 1490
1480 1479 1480 1480 1480 1480 1479 1479 1479 1479 1478 1479 1480 1481 1482 1481 1481 1482 1482 1481 1481 1481 1481 1484 1488 1489 1488 1488 1487 1489 1492 1494 1495 1498 1499 1499 1500 1500 1500 1501 1501 1500 1499 1500 1501 1503 1505 1510 1514 1514 1512 1513 1513 1512 1513 1515 1515 1514 1513 1513 1513 1512 1511 1509 1508 1509 1510 1508 1503 1503 1507 1506 1505 1507 1510 1509 1509 1508 1506 1505 1503 1501 1500 1498 1496 1494 1492 1491
1479 1479 1479 1479 1479 1480 1480 1480 1480 1479 1479 1480 1480 1481 1483 1483 1482 1483 1484 1483 1483 1483 1483 1485 1488 1489 1488 1488 1487 1488 1491 1491 1492 1495 1496 1498 1500 1500 1500 1501 1501 1500 1500 1500 1503 1504 1505 1510 1515 1513 1512 1512 1510 1511 1514 1515 1515 1514 1512 1511 1510 1510 1511 1510 1509 1509 1510 1508 1505 1505 1506 1505 1506 1507 1507 1507 1507 1506 1505 1504 1502 1501 1500 1498 1497 1495 1493 1492
1479 1479 1479 1479 1479 1480 1480 1480 1481 1480 1479 1479 1480 1481 1483 1484 1483 1483 1484 1485 1485 1485 1485 1486 1488 1489 1489 1489 1488 1489 1491 1492 1492 1492 1493 1495 1497 1497 1498 1500 1500 1500 1501 1502 1503 1503 1504 1511 1515 1514 1513 1511 1510 1512 1513 1512 1513 1513 1510 1507 1506 1506 1508 1507 1506 1506 1506 1504 1503 1504 1504 1504 1506 1506 1506 1506 1506 1505 1504 1503 1502 1502 1500 1499 1498 1496 1495 1494
1479 1478 1479 1478 1478 1479 1479 1480 1481 1480 1479 1479 1480 1481 1482 1483 1483 1483 1484 1486 1486 1485 1486 1486 1487 1488 1489 1490 1490 1490 1491 1491 1492 1493 1493 1494 1495 1495 1496 1497 1498 1499 1501 1502 1504 1505 1505 1508 1511 1513 1514 1512 1513 1514 1511 1511 1513 1508 1501 1498 1498 1501 1504 1502 1501 1502 1503 1501 1500 1500 1501 1503 1506 1506 1505 1505 1505 1504 1504 1503 1502 1501 1500 1499 1499 1497 1496 1495